Time,TemperatureF,DewpointF,PressureIn,WindDirection,WindDirectionDegrees,WindSpeedMPH,WindSpeedGustMPH,Humidity,HourlyPrecipIn,Conditions,Clouds,dailyrainin,SoftwareType,DateUTC
2013-08-24 00:14:00,67.0,64.0,30.09,SW,234,0.0,-999.0,91,-99.99,,,-99.99,,2013-08-24 04:14:00,
2013-08-24 00:24:00,66.0,63.0,30.09,WSW,245,0.0,-999.0,91,-99.99,,,-99.99,,2013-08-24 04:24:00,
2013-08-24 00:44:00,66.0,64.0,30.10,North,350,0.0,-999.0,92,-99.99,,,-99.99,,2013-08-24 04:44:00,
2013-08-24 00:53:00,66.0,64.0,30.11,NW,313,0.0,-999.0,92,-99.99,,,-99.99,,2013-08-24 04:53:00,
2013-08-24 01:13:00,66.0,64.0,30.11,NW,313,0.0,-999.0,92,-99.99,,,-99.99,,2013-08-24 05:13:00,
2013-08-24 01:23:00,65.0,63.0,30.11,NW,313,0.0,-999.0,92,-99.99,,,-99.99,,2013-08-24 05:23:00,
2013-08-24 01:43:00,65.0,63.0,30.12,NW,313,0.0,-999.0,93,-99.99,,,-99.99,,2013-08-24 05:43:00,
2013-08-24 01:53:00,64.0,62.0,30.11,NW,313,0.0,-999.0,94,-99.99,,,-99.99,,2013-08-24 05:53:00,
2013-08-24 02:12:00,64.0,63.0,30.11,NW,313,0.0,-999.0,95,-99.99,,,-99.99,,2013-08-24 06:12:00,
2013-08-24 02:22:00,64.0,63.0,30.11,NW,313,0.0,-999.0,95,-99.99,,,-99.99,,2013-08-24 06:22:00,
2013-08-24 02:42:00,64.0,63.0,30.11,NW,313,0.0,-999.0,95,-99.99,,,-99.99,,2013-08-24 06:42:00,
2013-08-24 02:52:00,63.0,62.0,30.11,NW,313,0.0,-999.0,95,-99.99,,,-99.99,,2013-08-24 06:52:00,
2013-08-24 03:12:00,63.0,62.0,30.11,NW,313,0.0,-999.0,95,-99.99,,,-99.99,,2013-08-24 07:12:00,
2013-08-24 03:22:00,63.0,62.0,30.12,NW,313,0.0,-999.0,95,-99.99,,,-99.99,,2013-08-24 07:22:00,
2013-08-24 03:43:00,62.0,61.0,30.12,NW,313,0.0,-999.0,95,-99.99,,,-99.99,,2013-08-24 07:43:00,
2013-08-24 03:53:00,62.0,61.0,30.12,NW,313,0.0,-999.0,95,-99.99,,,-99.99,,2013-08-24 07:53:00,
2013-08-24 04:12:00,61.0,60.0,30.13,NW,313,0.0,-999.0,95,-99.99,,,-99.99,,2013-08-24 08:12:00,
2013-08-24 04:22:00,61.0,60.0,30.13,NW,317,0.0,-999.0,95,-99.99,,,-99.99,,2013-08-24 08:22:00,
2013-08-24 04:52:00,61.0,60.0,30.14,NW,317,0.0,-999.0,95,-99.99,,,-99.99,,2013-08-24 08:52:00,
2013-08-24 05:11:00,61.0,60.0,30.14,NW,317,0.0,-999.0,95,-99.99,,,-99.99,,2013-08-24 09:11:00,
2013-08-24 05:22:00,61.0,60.0,30.14,NW,317,0.0,-999.0,95,-99.99,,,-99.99,,2013-08-24 09:22:00,
2013-08-24 05:44:00,61.0,60.0,30.14,NW,319,0.0,-999.0,95,-99.99,,,-99.99,,2013-08-24 09:44:00,
2013-08-24 05:53:00,61.0,60.0,30.15,NW,319,0.0,-999.0,95,-99.99,,,-99.99,,2013-08-24 09:53:00,
2013-08-24 06:13:00,61.0,60.0,30.16,NW,319,0.0,-999.0,95,-99.99,,,-99.99,,2013-08-24 10:13:00,
2013-08-24 06:23:00,60.0,59.0,30.16,NW,319,0.0,-999.0,95,-99.99,,,-99.99,,2013-08-24 10:23:00,
2013-08-24 06:42:00,60.0,59.0,30.17,NW,319,0.0,-999.0,96,-99.99,,,-99.99,,2013-08-24 10:42:00,
2013-08-24 06:53:00,60.0,59.0,30.18,NW,319,0.0,-999.0,96,-99.99,,,-99.99,,2013-08-24 10:53:00,
2013-08-24 07:12:00,60.0,59.0,30.18,NW,319,0.0,-999.0,96,-99.99,,,-99.99,,2013-08-24 11:12:00,
2013-08-24 07:22:00,60.0,59.0,30.19,NW,319,0.0,-999.0,96,-99.99,,,-99.99,,2013-08-24 11:22:00,
2013-08-24 07:52:00,60.0,59.0,30.20,NW,319,0.0,-999.0,96,-99.99,,,-99.99,,2013-08-24 11:52:00,
2013-08-24 08:12:00,60.0,59.0,30.20,NW,319,0.0,-999.0,96,-99.99,,,-99.99,,2013-08-24 12:12:00,
2013-08-24 08:21:00,61.0,60.0,30.21,NW,319,0.0,-999.0,95,-99.99,,,-99.99,,2013-08-24 12:21:00,
2013-08-24 08:42:00,62.0,61.0,30.21,NW,319,0.0,-999.0,96,-99.99,,,-99.99,,2013-08-24 12:42:00,
2013-08-24 08:52:00,62.0,60.0,30.21,NW,306,0.0,-999.0,93,-99.99,,,-99.99,,2013-08-24 12:52:00,
2013-08-24 09:11:00,63.0,60.0,30.22,NW,316,0.0,-999.0,91,-99.99,,,-99.99,,2013-08-24 13:11:00,
2013-08-24 09:22:00,64.0,61.0,30.22,North,11,0.0,-999.0,89,-99.99,,,-99.99,,2013-08-24 13:22:00,
2013-08-24 09:52:00,66.0,61.0,30.22,NE,49,0.0,-999.0,84,-99.99,,,-99.99,,2013-08-24 13:52:00,
2013-08-24 10:11:00,67.0,61.0,30.23,SE,128,0.0,-999.0,81,-99.99,,,-99.99,,2013-08-24 14:11:00,
2013-08-24 10:22:00,68.0,61.0,30.22,SE,132,0.0,-999.0,79,-99.99,,,-99.99,,2013-08-24 14:22:00,
2013-08-24 10:42:00,68.0,59.0,30.23,SSW,204,0.0,-999.0,74,-99.99,,,-99.99,,2013-08-24 14:42:00,
2013-08-24 10:52:00,69.0,58.0,30.24,SW,224,0.0,-999.0,69,-99.99,,,-99.99,,2013-08-24 14:52:00,
2013-08-24 11:12:00,69.0,57.0,30.25,SW,224,0.0,-999.0,65,-99.99,,,-99.99,,2013-08-24 15:12:00,
2013-08-24 11:22:00,70.0,59.0,30.25,NNW,344,0.0,-999.0,68,-99.99,,,-99.99,,2013-08-24 15:22:00,
2013-08-24 11:45:00,71.0,59.0,30.25,NNE,13,0.0,-999.0,67,-99.99,,,-99.99,,2013-08-24 15:45:00,
2013-08-24 11:54:00,72.0,59.0,30.26,SSW,196,0.0,-999.0,63,-99.99,,,-99.99,,2013-08-24 15:54:00,
2013-08-24 12:13:00,74.0,60.0,30.26,NW,325,0.0,-999.0,61,-99.99,,,-99.99,,2013-08-24 16:13:00,
2013-08-24 12:23:00,74.0,59.0,30.26,WNW,284,0.0,-999.0,60,-99.99,,,-99.99,,2013-08-24 16:23:00,
2013-08-24 12:53:00,76.0,61.0,30.25,WSW,256,0.0,-999.0,60,-99.99,,,-99.99,,2013-08-24 16:53:00,
2013-08-24 13:23:00,76.0,61.0,30.24,SW,227,0.0,-999.0,60,-99.99,,,-99.99,,2013-08-24 17:23:00,
2013-08-24 13:42:00,76.0,61.0,30.25,SSW,213,0.0,-999.0,60,-99.99,,,-99.99,,2013-08-24 17:42:00,
2013-08-24 13:52:00,77.0,63.0,30.24,SSW,208,0.0,-999.0,61,-99.99,,,-99.99,,2013-08-24 17:52:00,
2013-08-24 14:13:00,77.0,61.0,30.24,South,180,0.0,-999.0,58,-99.99,,,-99.99,,2013-08-24 18:13:00,
2013-08-24 14:22:00,77.0,61.0,30.24,ESE,121,0.0,-999.0,57,-99.99,,,-99.99,,2013-08-24 18:22:00,
2013-08-24 14:42:00,77.0,61.0,30.24,South,173,0.0,-999.0,57,-99.99,,,-99.99,,2013-08-24 18:42:00,
2013-08-24 14:53:00,77.0,60.0,30.24,SSW,213,0.0,-999.0,56,-99.99,,,-99.99,,2013-08-24 18:53:00,
2013-08-24 15:12:00,77.0,60.0,30.24,ENE,69,0.0,-999.0,56,-99.99,,,-99.99,,2013-08-24 19:12:00,
2013-08-24 15:22:00,78.0,61.0,30.24,SE,129,0.0,-999.0,56,-99.99,,,-99.99,,2013-08-24 19:22:00,
2013-08-24 15:52:00,78.0,62.0,30.23,North,350,0.0,-999.0,57,-99.99,,,-99.99,,2013-08-24 19:52:00,
2013-08-24 16:12:00,78.0,62.0,30.23,WNW,290,0.0,-999.0,58,-99.99,,,-99.99,,2013-08-24 20:12:00,
2013-08-24 16:22:00,77.0,60.0,30.22,SSW,207,0.0,-999.0,56,-99.99,,,-99.99,,2013-08-24 20:22:00,
2013-08-24 16:53:00,75.0,60.0,30.23,NNE,30,0.0,-999.0,60,-99.99,,,-99.99,,2013-08-24 20:53:00,
2013-08-24 17:22:00,74.0,60.0,30.23,SW,234,0.0,-999.0,61,-99.99,,,-99.99,,2013-08-24 21:22:00,
2013-08-24 17:55:00,73.0,60.0,30.23,SSW,199,0.0,-999.0,64,-99.99,,,-99.99,,2013-08-24 21:55:00,
2013-08-24 18:14:00,73.0,61.0,30.23,SW,225,0.0,-999.0,67,-99.99,,,-99.99,,2013-08-24 22:14:00,
2013-08-24 18:24:00,73.0,61.0,30.23,West,264,0.0,-999.0,67,-99.99,,,-99.99,,2013-08-24 22:24:00,
2013-08-24 18:53:00,73.0,61.0,30.23,NNW,329,0.0,-999.0,67,-99.99,,,-99.99,,2013-08-24 22:53:00,
2013-08-24 19:12:00,72.0,62.0,30.24,NNW,328,0.0,-999.0,71,-99.99,,,-99.99,,2013-08-24 23:12:00,
2013-08-24 19:22:00,70.0,60.0,30.24,NNW,328,0.0,-999.0,71,-99.99,,,-99.99,,2013-08-24 23:22:00,
2013-08-24 19:43:00,69.0,60.0,30.24,South,186,0.0,-999.0,73,-99.99,,,-99.99,,2013-08-24 23:43:00,
2013-08-24 19:53:00,68.0,60.0,30.24,South,186,0.0,-999.0,76,-99.99,,,-99.99,,2013-08-24 23:53:00,
2013-08-24 20:12:00,67.0,60.0,30.24,South,186,0.0,-999.0,77,-99.99,,,-99.99,,2013-08-25 00:12:00,
2013-08-24 20:22:00,66.0,57.0,30.24,South,186,0.0,-999.0,74,-99.99,,,-99.99,,2013-08-25 00:22:00,
2013-08-24 20:42:00,66.0,58.0,30.24,South,186,0.0,-999.0,75,-99.99,,,-99.99,,2013-08-25 00:42:00,
2013-08-24 20:52:00,66.0,58.0,30.26,South,186,0.0,-999.0,76,-99.99,,,-99.99,,2013-08-25 00:52:00,
2013-08-24 21:11:00,66.0,58.0,30.26,WSW,246,0.0,-999.0,76,-99.99,,,-99.99,,2013-08-25 01:11:00,
2013-08-24 21:22:00,66.0,59.0,30.26,WSW,246,0.0,-999.0,77,-99.99,,,-99.99,,2013-08-25 01:22:00,
2013-08-24 21:42:00,65.0,58.0,30.27,WSW,246,0.0,-999.0,77,-99.99,,,-99.99,,2013-08-25 01:42:00,
2013-08-24 21:52:00,65.0,58.0,30.27,WSW,248,0.0,-999.0,79,-99.99,,,-99.99,,2013-08-25 01:52:00,
2013-08-24 22:11:00,64.0,57.0,30.27,WSW,248,0.0,-999.0,79,-99.99,,,-99.99,,2013-08-25 02:11:00,
2013-08-24 22:22:00,64.0,58.0,30.28,WSW,248,0.0,-999.0,80,-99.99,,,-99.99,,2013-08-25 02:22:00,
2013-08-24 22:42:00,64.0,58.0,30.28,WSW,248,0.0,-999.0,80,-99.99,,,-99.99,,2013-08-25 02:42:00,
2013-08-24 22:52:00,64.0,58.0,30.29,WSW,248,0.0,-999.0,81,-99.99,,,-99.99,,2013-08-25 02:52:00,
2013-08-24 23:23:00,63.0,57.0,30.30,WNW,301,0.0,-999.0,81,-99.99,,,-99.99,,2013-08-25 03:23:00,
2013-08-24 23:54:00,63.0,57.0,30.30,WNW,301,0.0,-999.0,81,-99.99,,,-99.99,,2013-08-25 03:54:00,